STARLINK-1817 (46715 NORAD) Tracking and Keplerian Element Data

This shows tracking and keplerian element data for the satellite.

Feedback or suggestion? Click here.




ElementValue
Catalog46715
NameSTARLINK-1817
Epoch Orbit610
Epoch Day328.16667824
Epoch Year2020
RAAN293.7926
Inclination53.055
Eccentricity8.94E-05
Argument of Perigee62.8567
Mean Anonmoly81.6156
Mean Motion15.6283218
Decay Rate-0.00064081
L11 46715U 20073AX 20328.16667824 -.00064081 00000-0 -69740-3 0 9990
L22 46715 53.0550 293.7926 0000894 62.8567 81.6156 15.62832180 6106

Live tracking and technical data element details for STARLINK-1817 (NORAD 46715). STARLINK-1817 can be tracked NOW for your location showing map with azimuth and elevation plus other details from your city location.

Track the satellite on the map from your city or location and see movement details for azimuth, elevation, latitude, longitude, range, height, and movement on the map or in text.







IsCatalogInMostPopularTable: catalog: 46715, numindb: 9
Update: records affected: 1



GetName: 46715 STARLINK-1817

Hit Count: updated at: Tue, 24 Nov 2020 11:54:48 GMT